883  
NZUS93 KARX 261010  
HRRWXR  
 
CURRENT HOURLY OBSERVATIONS ACROSS  
MUCH OF THE UPPER MISSISSIPPI VALLEY  
NATIONAL WEATHER SERVICE LA CROSSE WI  
500 AM CDT THU MAY 26 2016  
 
   
..SOUTHEAST MINNESOTA
 
 
 
CITY SKY/WX TMP DP RH WIND PRES REMARKS  
ROCHESTER RAIN 58 57 97 NW10 29.86R FOG  
ROCHESTER/MAYO CLOUDY 59 58 97 CALM 29.85R  
WINONA CLOUDY 63 61 94 NW15G24 29.84R  
AUSTIN RAIN 57 55 94 N3 29.86R  
ALBERT LEA LGT RAIN 57 57 100 CALM 29.85R  
DODGE CENTER LGT RAIN 57 57 100 SE3 29.83S  
PRESTON TSTM 57 55 92 N13G20 N/A  
OWATONNA CLOUDY 57 55 94 E3 29.80S  
FARIBAULT CLOUDY 59 57 94 SE3 29.80R  

 
   
..ELSEWHERE IN MINNESOTA
 
 
 
CITY SKY/WX TMP DP RH WIND PRES REMARKS  
MINNEAPOLIS CLOUDY 67 52 58 VRB7G17 29.73F  
INTNL FALLS MOCLDY 54 52 93 SE6 29.75F  
DULUTH FOG 45 44 97 E7 29.79F VSB 1/4  
RED WING RAIN 61 57 88 CALM 29.81S  
REDWOOD FALLS MOCLDY 61 54 77 SW8 29.78R  
MANKATO CLOUDY 61 55 82 SE12 29.78R  
WORTHINGTON CLOUDY 61 55 81 SW14 29.85R  
FAIRMONT CLOUDY 63 46 55 S21 29.82R  

 
   
..SOUTHWEST WISCONSIN
 
 
 
CITY SKY/WX TMP DP RH WIND PRES REMARKS  
LA CROSSE CLOUDY 63 62 97 SE7 29.79R  
PRAIRIE DU CHI CLOUDY 63 59 87 E6 29.80R  
BOSCOBEL CLOUDY 62 60 93 E3 29.82R FOG  
LONE ROCK CLOUDY 60 59 96 CALM 29.85R  
PLATTEVILLE CLOUDY 68 62 81 S7 29.86R  
FORT MC COY CLOUDY 54 54 100 CALM 29.82R  
CAMP DOUGLAS FOG 57 57 100 CALM 29.81R VSB 1/2  
MAUSTON-NEW LI FOG 59 59 100 CALM 29.81S VSB 3/4  
VIROQUA FAIR 64 61 88 SE7 29.82R  
WIS DELLS CLOUDY 61 60 94 S5 29.84R  

 
   
..ELSEWHERE IN WISCONSIN
 
 
 
CITY SKY/WX TMP DP RH WIND PRES REMARKS  
MILWAUKEE CLOUDY 64 63 96 S6 29.85F FOG  
MADISON CLOUDY 65 63 93 S6 29.83S  
GREEN BAY CLOUDY 61 59 93 CALM 29.83R FOG  
EAU CLAIRE CLOUDY 56 56 100 CALM 29.78R  
BLACK RVR FLS FOG 54 54 100 CALM 29.80R VSB<1/4  
MEDFORD FOG 60 60 100 CALM 29.82S VSB 1/4  
WAUSAU FOG 63 32 31 S3 29.81S VSB 3/4  
WIS RAPIDS FOG 60 58 92 CALM 29.82S VSB 1/4  
MARSHFIELD FOG 60 58 92 S3 29.81S VSB 1/4  
RICE LAKE FOG 59 57 96 E3 29.80F VSB<1/4  

 
   
..NORTHEAST IOWA
 
 
 
CITY SKY/WX TMP DP RH WIND PRES REMARKS  
WATERLOO RAIN 58 57 97 W20G36 29.98R FOG  
DUBUQUE CLOUDY 67 62 84 S12 29.86R  
DECORAH LGT RAIN 63 61 94 NW13G28 29.82R  
MASON CITY RAIN 59 57 93 SW13G23 29.93R FOG  
CHARLES CITY RAIN 61 61 100 W16 29.94R  
OELWEIN FOG 61 59 94 W37G62 29.97R VSB 3/4  

 
   
..ELSEWHERE IN IOWA
 
 
 
CITY SKY/WX TMP DP RH WIND PRES REMARKS  
DES MOINES CLOUDY 64 57 78 CALM 29.84R  
IOWA CITY CLOUDY 70 64 81 SW6 29.87S  
FORT DODGE MOCLDY 57 54 88 E9 29.83F  
MARSHALLTOWN NOT AVBL  
CEDAR RAPIDS TSTM 65 65 100 NW13 29.89R FOG  

 
   
..NORTHERN ILLINOIS
 
 
 
CITY SKY/WX TMP DP RH WIND PRES REMARKS  
CHICAGO-OHARE PTCLDY 67 65 93 S9 29.87F  
CHICAGO-MIDWAY PTCLDY 69 64 84 S7 29.88F  
MOLINE CLOUDY 73 63 70 SW12 29.87R  
ROCKFORD CLOUDY 65 63 93 S7 29.90R  
PEORIA CLOUDY 69 65 86 S8 29.89F  

 
 
NOTE: "FAIR" INDICATES FEW OR NO CLOUDS BELOW 12,000 FEET WITH NO  
SIGNIFICANT WEATHER AND/OR OBSTRUCTIONS TO VISIBILITY. WIND  
SPEEDS ARE IN MILES-PER-HOUR.  
 
 
CLICK HERE TO GO TO PREVIOUS BULLETINS.

The Nexlab WI Page
The Nexlab IA Page
The Nexlab MN Page Main Text Page